COSMOS 2251 DEB, 34671

Orbit data source: Space-Track

COSMOS 2251 DEB, 34671 is space debris in LEO originally from a launch on Wed, 16 Jun 1993 UTC launched from the Plesetsk Missile And Space Complex (PKMTR). The debris from Iridium 33, an American commercial communications satellite, has been tracked extensively since its accidental collision with the defunct Russian satellite Cosmos 2251 in 2009. This event, occurring at high speed in low Earth orbit (LEO), generated thousands of pieces of space debris, significantly increasing the risk of further collisions. The Iridium 33 debris cloud has impacted space traffic management and orbital debris mitigation strategies, making it a subject of ongoing study in space situational awareness.

Loading next visibility...
Identifier
34671, 1993-036XR
Orbit
LEO
Country
Flag of CISCIS
Related business
Manufacturer
Unknown
Mission
Spacecraft
Bus & Motor
Unknown
Mass
Unknown
Launch date (UTC)
1993-06-16 (33 years ago)
Launch vehicle
Unknown
Launch site
Plesetsk Missile And Space Complex (PKMTR)
Object type
Payload
Rocket body
Debris
Shape & HBR
Unknown shape, 0.1 m
Radar Cross Section
Medium (>0.1 m² and <1 m²)

Expand to show TLE details & history
Last TLE update: 17 hours ago

TLE from 17 hours ago
0 COSMOS 2251 DEB
1 34671U 93036XR  26207.56738259  .00005734  00000-0  95084-3 0  9992
2 34671  74.0252  56.9437 0012443  84.6238 305.2923 14.70400417916134
Epoch: 2026-07-26T13:37Z
TLE epoch observation values (Epoch: 2026-07-26T13:37:01.855Z)
Latitude
28.59321°
Longitude
-82.64957°
Altitude
657.986 km
Speed
7.534 km/s
True Right ascension
04h 23m 29s
True Declination
28° 26' 49"
Sunlit
Object was in daylight at epoch
Visualization orbit readout
Latitude
Unknown
Longitude
Unknown
Altitude
Unknown
Speed
Unknown
Apparent Right ascension
Unknown
Apparent Declination
Unknown
Sunlit
N/A
Visualization observer readout
Local Sidereal Time
19:51:13
Azimuth
Unknown
Elevation
Unknown
Doppler factor
Unknown
Orbital elements
Apogee altitude
666.131 km
Perigee altitude
648.623 km
Semi-major axis
7,035.514 km
Eccentricity
0.00124
Inclination
74.0252°
RAAN
56.9437°
Arg. of periapsis
84.6238°
True anomaly
305.17581°
Mean anomaly
305.2923°
Eccentric anomaly
305.23407°
Mean motion
3.6779 °/min
Orbital period
97.88 mins
BSTAR
0.00095084
Loading maneuver chart data...
Computing Atmospheric mass density...
Loading historical data...
Loading historical data...
Loading historical data...
Loading historical data...
Loading historical data...
Loading historical data...
Loading historical data...

Documentation

Showing up to 5 results
|